Las Vegas, NV

6:54 PM PDT on August 24, 2016 (GMT -0700)
Nellis AFB

Weather History for KLSV - October, 2012

Change the Weather History Date:

Saturday, October 13, 2012

  Actual Average Record
Temperature  
Mean Temperature 62 °F -  
Max Temperature 74 °F 83 °F 95 °F (1996)
Min Temperature 52 °F 54 °F 48 °F (2000)
Degree Days  
Heating Degree Days 3    
Growing Degree Days 12 (Base 50)    
Moisture  
Dew Point 49 °F    
Average Humidity 64    
Maximum Humidity 89    
Minimum Humidity 41    
Precipitation  
Precipitation 0.00 in - - ()
Sea Level Pressure  
Sea Level Pressure 30.17 in    
Wind  
Wind Speed 3 mph (ENE)    
Max Wind Speed 8 mph    
Max Gust Speed -    
Visibility 10 miles    
Events      
Averages and records for this station are not official NWS values.
T = Trace of Precipitation, MM = Missing Value Source: NWS Daily Summary

Daily Weather History Graph

Daily Weather History Graph

Search for Another Location

Airport or City:

Trip Planner

Search our weather history database for the weather conditions in past years. The results will help you decide how hot, cold, wet, or windy it might be!

Date:

Astronomy

Oct. 13, 2012 Rise Set
Actual Time 6:45 AM PDT 6:05 PM PDT
Civil Twilight 6:20 AM PDT 6:31 PM PDT
Nautical Twilight 5:50 AM PDT 7:01 PM PDT
Astronomical Twilight 5:20 AM PDT 7:31 PM PDT
Moon 4:43 AM PDT (10/13) 4:50 PM PDT (10/13)
Length of Visible Light 12h 11m
Length of Day
11h 20m
Waning Crescent, 4% of the Moon is Illuminated
Oct 13
Waning Crescent
Oct 15
New
Oct 21
First Quarter
Oct 29
Full
Nov 6
Last Quarter

Hourly Weather History & Observations

Time (PDT) Temp. Dew Point Humidity Pressure Visibility Wind Dir Wind Speed Gust Speed Precip Events Conditions
12:55 AM 58.6 °F 46.8 °F 65% 30.11 in 10.0 mi Calm Calm - N/A   Clear
1:55 AM 54.7 °F 49.6 °F 83% 30.12 in 10.0 mi ENE 4.6 mph - N/A   Clear
2:55 AM 54.7 °F 49.3 °F 82% 30.12 in 10.0 mi NE 3.5 mph - N/A   Clear
3:55 AM 53.6 °F 49.6 °F 86% 30.13 in 10.0 mi NE 4.6 mph - N/A   Clear
4:55 AM 53.4 °F 49.3 °F 86% 30.14 in 10.0 mi NE 3.5 mph - N/A   Clear
5:55 AM 52.5 °F 49.3 °F 89% 30.17 in 10.0 mi NE 5.8 mph - N/A   Clear
6:55 AM 52.9 °F 48.4 °F 85% 30.19 in 10.0 mi ENE 5.8 mph - N/A   Clear
7:55 AM 56.3 °F 48.2 °F 74% 30.21 in 10.0 mi East 6.9 mph - N/A   Clear
8:55 AM 59.9 °F 49.8 °F 69% 30.24 in 10.0 mi East 8.1 mph - N/A   Clear
9:55 AM 62.8 °F 49.5 °F 62% 30.24 in 10.0 mi ENE 5.8 mph - N/A   Clear
10:55 AM 64.6 °F 48.9 °F 57% 30.23 in 10.0 mi NE 3.5 mph - N/A   Clear
11:55 AM 66.2 °F 47.8 °F 52% 30.22 in 10.0 mi Calm Calm - N/A   Clear
12:55 PM 67.6 °F 48.6 °F 50% 30.20 in 10.0 mi Calm Calm - N/A   Clear
1:55 PM 69.8 °F 47.5 °F 45% 30.17 in 10.0 mi Calm Calm - N/A   Clear
2:55 PM 70.5 °F 46.2 °F 42% 30.16 in 10.0 mi Calm Calm - N/A   Clear
3:55 PM 71.6 °F 47.8 °F 43% 30.14 in 10.0 mi Calm Calm - N/A   Clear
4:55 PM 72.7 °F 48.6 °F 42% 30.13 in 10.0 mi Calm Calm - N/A   Clear
5:55 PM 72.1 °F 47.3 °F 41% 30.13 in 10.0 mi Calm Calm - N/A   Clear
6:55 PM 70.7 °F 48.9 °F 46% 30.14 in 10.0 mi Calm Calm - N/A   Clear
7:55 PM 67.3 °F 56.1 °F 67% 30.15 in 10.0 mi ENE 5.8 mph - N/A   Clear
8:55 PM 64.8 °F 54.1 °F 68% 30.16 in 10.0 mi ENE 5.8 mph - N/A   Clear
9:55 PM 63.1 °F 53.1 °F 70% 30.16 in 10.0 mi ENE 6.9 mph - N/A   Clear
10:55 PM 63.5 °F 51.6 °F 65% 30.16 in 10.0 mi ENE 6.9 mph - N/A   Clear
11:55 PM 62.6 °F 50.4 °F 64% 30.16 in 10.0 mi East 4.6 mph - N/A   Clear